Regional Weather Roundup
Issued by NWS

Home | Current Version | Previous Version | Graphics & Text | Print | Product List | Glossary On
Versions: 1 2 3 4 5 6 7 8 9 10 11 12 13 14 15 16 17 18 19 20 21 22 23 24 25 26 27 28 29 30 31 32 33 34 35 36 37 38 39 40 41 42 43 44 45 46 47 48 49 50
571
ASUS43 KIND 222359
RWRIN

WEATHER ROUNDUP FOR INDIANA
NATIONAL WEATHER SERVICE INDIANAPOLIS IN
700 PM EST SUN JAN 22 2017

NOTE: "FAIR" INDICATES FEW OR NO CLOUDS BELOW 12,000 FEET WITH NO
SIGNIFICANT WEATHER AND/OR OBSTRUCTIONS TO VISIBILITY.

* - STATION DOES NOT REPORT WEATHER SUCH AS PRECIPITATION OR FOG.

+ - STATION NOT QUALITY CONTROLLED BY THE NATIONAL WEATHER SERVICE.
    USE DATA WITH CAUTION...ESPECIALLY DEWPOINT AND RELATIVE
    HUMIDITY OBSERVATIONS.

INZ001>003-010>013-019-020-230100-
NORTHWEST INDIANA

CITY           SKY/WX    TMP DP  RH WIND       PRES   REMARKS
GARY /AIRPORT/ CLOUDY    41  41 100 N10       29.65R FOG
MONTICELLO +   CLOUDY    45  44  95 N15       29.54F FOG
6HR MIN TEMP:  45; 6HR MAX TEMP:  54;


$$

LMZ046-743>745-230100-
SOUTHERN LAKE MICHIGAN

STATION/POSITION TIME  TEMP    WIND        PRES    WAVE
                       AIR SEA DIR/SP/G            HT
                 (UTC) (F)     (DEG/KT/KT) (MB)    (FT)
BURNS HARBOR     2340   36     350/  8/ 11 1004.4R
MICHIGAN CITY    2330   37     340/ 12/ 13   N/A

$$

INZ004-005-014>016-021>024-230100-
NORTH CENTRAL INDIANA

CITY           SKY/WX    TMP DP  RH WIND       PRES   REMARKS
GOSHEN         FOG       44  41  89 N13       29.59F VSB 3/4
6HR MIN TEMP:  44; 6HR MAX TEMP:  52;

SOUTH BEND     FOG       41  41 100 N12       29.61S VSB 1/2
6HR MIN TEMP:  41; 6HR MAX TEMP:  43;


$$

INZ006>009-017-018-025>027-230100-
NORTHEAST INDIANA

CITY           SKY/WX    TMP DP  RH WIND       PRES   REMARKS
ANGOLA *+      CLOUDY    48  34  57 N7        29.58S
FORT WAYNE     MOCLDY    51  47  86 N10       29.55R
6HR MIN TEMP:  51; 6HR MAX TEMP:  63;

KENDALLVILLE + CLOUDY    49  48  97 NE8       29.59S

$$

INZ028-029-035-036-043>045-051>053-230100-
WEST CENTRAL INDIANA

CITY           SKY/WX    TMP DP  RH WIND       PRES   REMARKS
CRAWFORDSVL +  PTCLDY    48  48 100 N13       29.51R
6HR MIN TEMP:  48; 6HR MAX TEMP:  59;

LAFAYETTE      CLOUDY    46  46 100 N10       29.55R FOG
6HR MIN TEMP:  46; 6HR MAX TEMP:  53;

TERRE HAUTE    PTCLDY    54  49  83 N18       29.50R
6HR MIN TEMP:  54; 6HR MAX TEMP:  61;


$$

INZ030>032-037>040-046>048-054>057-064-065-230100-
CENTRAL INDIANA

CITY           SKY/WX    TMP DP  RH WIND       PRES   REMARKS
COLUMBUS       CLEAR     55  54  94 NE10      29.46R
INDIANAPOLIS   MOCLDY    56  51  84 N14       29.49R
6HR MIN TEMP:  56; 6HR MAX TEMP:  61;

-EAGLE CREEK   PTCLDY    56  50  80 NE12      29.49R
6HR MIN TEMP:  56; 6HR MAX TEMP:  62;

KOKOMO +       CLEAR     50  48  93 N13       29.54R
6HR MIN TEMP:  50; 6HR MAX TEMP:  60;

MT COMFORT *+  MOCLDY    54  50  87 N13       29.49R
SHELBYVILLE    PTCLDY    57  50  77 NE12      29.47R
6HR MIN TEMP:  57; 6HR MAX TEMP:  61;


$$

INZ033-034-041-042-049-050-058-059-230100-
EAST CENTRAL INDIANA

CITY           SKY/WX    TMP DP  RH WIND       PRES   REMARKS
MUNCIE         PTCLDY    55  51  86 NE12      29.51R
6HR MIN TEMP:  55; 6HR MAX TEMP:  63;


$$

INZ060-061-067>069-081>083-085>088-230100-
SOUTHWEST INDIANA

CITY           SKY/WX    TMP DP  RH WIND       PRES   REMARKS
EVANSVILLE     CLOUDY    59  49  69 N6        29.43R
6HR MIN TEMP:  58; 6HR MAX TEMP:  64;

HUNTINGBURG *+ CLOUDY    57  50  77 N5        29.43R
6HR MIN TEMP:  57; 6HR MAX TEMP:  60; 6HR PCP: TRACE;


$$

INZ062-063-066-070>080-084-089>092-230100-
SOUTH CENTRAL AND SOUTHEAST INDIANA

CITY           SKY/WX    TMP DP  RH WIND       PRES   REMARKS
BLOOMINGTON    CLOUDY    58  49  72 NE9       29.47R
6HR MIN TEMP:  57; 6HR MAX TEMP:  60;

MADISON *+     CLOUDY    57  50  77 NE10      29.45R
SEYMOUR +      PTCLDY    59  52  77 NE12      29.44R

$$





USA.gov is the U.S. government's official web portal to all federal, state and local government web resources and services.